#timestamp,LO_Frequency,Hit,StdDev 
1590829215.3,286046997.7,N
1590829235.1,286046996.1,N
1590829255.9,286046998.0,N
1590829275.7,286046997.8,N
1590829295.5,286046995.0,N
1590829315.4,286046996.1,N
1590829335.2,286046996.0,N
1590829355.1,286046994.8,N
1590829356.0,286046994.8,N
1590829375.8,286046992.2,Y
1590829395.6,286046995.9,P
1590829415.5,286046993.7,P
1590829435.3,286046995.3,P
1590829455.2,286046997.8,N
1590829475.9,286046996.2,N
1590829495.7,286046993.4,Y
1590829515.6,286046986.3,P
1590829535.4,286046998.8,N
1590829585.3,286046998.4,E
1590829595.2,286046998.8,N
1590829615.0,286046998.6,P
1590829615.9,286046998.6,P
1590829635.8,286046998.2,Y
1590829655.6,286047000.4,P
1590829675.4,286047002.8,P
1590829695.3,286047002.4,N
1590829715.1,286046999.8,N
1590829735.9,286047000.0,N
1590829755.7,286047001.1,N
1590829775.5,286046998.5,N
1590829795.4,286046996.9,N
1590829815.2,286046999.2,N
1590829835.0,286046997.8,N
1590829835.9,286046997.8,N
1590829855.8,286046997.6,N
1590829875.6,286046997.9,N
1590829895.5,286046997.5,N
1590829915.3,286046995.3,N
1590829935.1,286046996.1,N
1590829955.9,286046995.6,N
1590829975.7,286046993.4,Y
1590829995.5,286046993.8,P
1590830015.4,286046994.4,N
1590830035.2,286046994.8,N
1590830055.1,286046993.0,Y
1590830056.0,286046993.0,P
1590830075.8,286046994.9,P
1590830095.6,286046995.7,P
1590830115.5,286046995.0,Y
1590830135.3,286047002.5,P
1590830155.2,286047002.6,N
1590830175.9,286046999.8,N
1590830195.7,286047001.5,N
1590830215.6,286046999.8,N
1590830235.4,286047002.1,N
1590830255.2,286047001.5,N
1590830275.1,286047002.4,N
1590830276.0,286047002.4,N
1590830295.8,286047000.0,N
1590830315.7,286047000.8,N
1590830335.5,286046998.5,N
1590830355.3,286046998.6,N
1590830375.2,286046999.2,N
1590830395.0,286046997.4,N
1590830395.9,286046997.4,N
1590830415.7,286046997.8,N
1590830435.6,286046995.5,N
1590830455.4,286046997.9,N
1590830475.3,286046997.9,N
1590830495.1,286046997.8,N
1590830496.0,286046997.8,N
1590830515.8,286046999.0,N
1590830535.7,286046999.6,N
1590830555.5,286046997.0,N
1590830575.3,286046997.4,N
1590830595.2,286046995.8,N
1590830615.0,286046993.7,N
1590830615.9,286046993.7,N
1590830635.8,286046995.6,N
1590830655.6,286046995.0,N
1590830675.4,286046995.1,N
1590830695.3,286046996.0,N
1590830715.1,286046994.2,N
1590830716.0,286046994.2,N
1590830735.8,286046992.1,Y
1590830755.7,286046995.5,P
1590830775.5,286046996.4,P
1590830795.4,286046993.7,P
1590830815.2,286046993.6,Y
1590830835.0,286046996.8,P
1590830835.9,286046996.8,P
1590830855.8,286046998.6,P
1590830875.6,286046998.5,N
1590830895.4,286047000.3,N
1590830915.3,286047000.9,N
1590830935.1,286047000.7,N
1590830955.9,286046998.1,N
1590830975.7,286046998.1,N
1590830995.5,286046999.7,N
1590831015.4,286046999.9,N
1590831035.2,286047002.8,N
1590831055.0,286047000.3,N
1590831055.9,286047000.3,N
1590831075.8,286047001.1,N
1590831095.6,286047000.5,N
1590831115.5,286047001.1,N
1590831135.3,286047002.8,N
1590831155.1,286047002.1,N
1590831175.9,286047004.4,N
1590831195.7,286047001.4,N
1590831215.5,286047002.6,N
1590831235.4,286047002.1,N
1590831255.2,286047002.4,N
1590831275.1,286047002.6,N
1590831276.0,286047002.6,N
1590831295.8,286047000.7,N
1590831315.6,286046998.1,N
1590831335.5,286047000.3,N
1590831355.3,286046998.6,N
1590831375.1,286047001.0,N
1590831395.9,286047001.1,N
1590831415.7,286046998.3,N
1590831435.6,286046998.6,N
1590831455.4,286046997.6,N
1590831475.2,286046997.3,N
1590831495.1,286046997.5,N
1590831496.0,286046997.5,N
1590831515.8,286046997.5,N
1590831535.6,286046997.4,N
1590831555.5,286046999.6,N
1590831575.3,286046996.8,N
1590831595.1,286046997.4,N
1590831615.9,286046997.5,N
1590831635.7,286046997.1,N
1590831655.6,286046999.3,N
1590831675.4,286046997.9,N
1590831695.2,286046996.2,N
1590831715.1,286046993.3,Y
1590831716.0,286046993.3,P
1590831735.8,286046995.7,N
1590831755.7,286046995.1,N
1590831775.5,286046997.7,N
1590831795.3,286046997.7,N
1590831815.2,286046996.6,N
1590831835.9,286046999.4,N
1590831855.7,286046997.2,N
1590831875.6,286046997.6,N
1590831895.4,286046995.0,N
1590831915.3,286046996.1,N
1590831935.1,286046997.8,N
1590831936.0,286046997.8,N
1590831955.8,286046996.9,N
1590831975.7,286046997.5,N
1590831995.5,286046997.6,N
1590832015.3,286046996.0,N
1590832035.2,286046995.2,Y
1590832055.0,286047000.9,P
1590832055.9,286047000.9,N
1590832075.8,286047000.6,N
1590832095.6,286046998.7,N
1590832115.4,286046996.6,N
1590832135.3,286046998.6,N
1590832155.1,286047000.5,N
1590832175.9,286046998.6,N
1590832195.7,286046999.0,N
1590832215.5,286046998.9,N
1590832235.4,286046998.9,N
1590832255.2,286046996.5,N
1590832275.0,286046996.8,N
1590832275.9,286046996.8,N
1590832295.8,286046996.5,N
1590832315.6,286046996.5,N
1590832335.4,286046996.9,N
1590832355.3,286046995.3,N
1590832375.1,286046997.5,N
1590832395.9,286046995.6,N
1590832415.7,286046996.0,N
1590832435.5,286046997.9,N
1590832455.4,286046997.7,N
1590832475.2,286046997.7,N
1590832495.0,286046995.4,N
1590832495.9,286046995.4,N
1590832515.8,286046997.7,N
1590832535.6,286046997.1,N
1590832555.5,286046996.6,N
1590832575.3,286046996.5,N
1590832595.1,286046997.1,N
1590832615.9,286046997.6,N
1590832635.7,286046999.1,N
1590832655.5,286046995.4,Y
1590832675.4,286047000.9,P
1590832695.2,286047001.2,N
1590832715.1,286047000.8,N
1590832716.0,286047000.8,N
1590832735.8,286046998.2,N
1590832755.6,286046998.1,N
1590832775.5,286046998.3,N
1590832795.3,286046998.2,N
